SCOUT A DEB, 2889

Orbit data source: Space-Track

SCOUT A DEB, 2889 is space debris in LEO originally from a launch on Fri, 28 Jan 1966 UTC launched from the Air Force Western Test Range (AFWTR). Debris objects in space refer to the collection of defunct objects orbiting the Earth. Examples of debris include non-operational satellites, rocket bodies, and fragments generated from explosions, collisions, or faulty payload assembly.

Loading next visibility...
Identifier
2889, 1966-005E
Orbit
LEO
Country
Flag of USUS
Related business
Manufacturer
Unknown
Mission
Spacecraft
Bus & Motor
Unknown
Mass
Unknown
Launch date (UTC)
1966-01-28 (60 years ago)
Launch vehicle
Unknown
Launch site
Air Force Western Test Range (AFWTR)
Object type
Payload
Rocket body
Debris
Shape & HBR
Unknown shape, 0.1 m
Radar Cross Section
Small (<0.1 m²)

Expand to show TLE details & history
Last TLE update: 3 days ago

TLE from 3 days ago
0 SCOUT A DEB
1 02889U 66005E   26118.07530867  .00000134  00000-0  30105-3 0  9998
2 02889  89.5393 160.1975 0164485 295.2910 124.5140 13.18000697829798
Epoch: 2026-04-28T01:48Z
TLE epoch observation values (Epoch: 2026-04-28T01:48:26.669Z)
Latitude
61.42206°
Longitude
-82.12788°
Altitude
1,274.882 km
Speed
7.189 km/s
True Right ascension
10h 44m 09s
True Declination
61° 17' 14"
Sunlit
Object was in daylight at epoch
Visualization orbit readout
Latitude
Unknown
Longitude
Unknown
Altitude
Unknown
Speed
Unknown
Apparent Right ascension
Unknown
Apparent Declination
Unknown
Sunlit
N/A
Visualization observer readout
Local Sidereal Time
14:51:51
Azimuth
Unknown
Elevation
Unknown
Doppler factor
Unknown
Orbital elements
Apogee altitude
1,313.938 km
Perigee altitude
1,064.987 km
Semi-major axis
7,567.599 km
Eccentricity
0.01645
Inclination
89.5393°
RAAN
160.1975°
Arg. of periapsis
295.291°
True anomaly
126.04902°
Mean anomaly
124.514°
Eccentric anomaly
125.28331°
Mean motion
3.2969 °/min
Orbital period
109.19 mins
BSTAR
0.00030105
Loading maneuver chart data...
Computing Atmospheric mass density...
Loading historical data...
Loading historical data...
Loading historical data...
Loading historical data...
Loading historical data...
Loading historical data...
Loading historical data...

Documentation

Showing up to 5 results
|